Vorticity
nan nan nan nan nan nan nan nan nan nan nan nan nan nan nan nan nan nan nan nan nan nan nan nan nan nan nan nan nan nan nan nan nan nan nan nan nan nan nan nan nan nan nan nan nan nan nan nan nan nan nan nan nan nan
nan 5 7 8 8 9 8 8 9 10 9 9 10 10 9 9 13 13 13 10 12 13 10 12 11 11 10 1 7 15 11 10 9 6 10 11 10 13 12 7 9 14 13 11 10 4 6 9 13 12 15 11 11 nan
nan 11 7 7 8 9 8 8 9 9 9 10 10 10 11 10 11 12 13 9 11 10 12 12 15 14 17 12 3 4 10 12 13 12 10 9 10 11 9 10 9 11 14 9 9 9 9 10 11 14 17 15 15 nan
nan 15 8 7 8 9 8 8 9 9 10 10 10 10 11 11 12 14 16 12 9 11 10 7 7 14 15 23 15 2 2 11 12 10 11 10 10 11 12 12 11 9 10 10 6 9 10 11 11 10 13 14 12 nan
nan 9 9 10 8 8 8 8 9 9 9 9 9 10 10 12 16 20 15 12 9 8 8 9 12 14 14 18 14 9 5 6 8 12 12 10 6 9 13 12 10 14 10 10 11 11 10 9 8 10 14 14 14 nan
nan 8 11 12 8 8 7 8 8 8 9 9 10 10 12 13 20 15 12 17 14 5 7 11 14 9 14 18 16 11 9 9 11 10 7 11 11 8 10 12 9 9 12 12 11 14 11 10 9 12 13 13 14 nan
nan 9 11 9 8 8 8 7 8 8 9 9 10 12 14 20 19 10 9 6 11 10 8 8 12 13 12 12 14 13 12 12 9 9 12 10 13 10 8 7 9 10 11 11 11 8 9 14 13 11 12 12 12 nan
nan 10 9 9 9 8 8 7 7 8 9 9 11 14 20 21 10 10 19 17 7 10 9 12 10 10 14 11 11 13 11 10 13 11 9 13 9 11 12 11 10 10 13 11 9 7 11 12 14 13 14 10 9 nan
nan 9 9 9 9 8 7 8 8 9 10 17 24 23 17 12 11 14 15 17 9 10 10 11 12 9 10 14 10 12 13 9 12 12 11 11 9 11 14 12 10 14 12 11 13 10 10 11 12 10 8 10 10 nan
nan 11 9 8 8 8 8 8 8 10 23 31 24 15 10 11 12 8 8 10 10 9 12 9 10 10 9 12 10 12 11 12 13 10 13 11 9 4 9 14 16 18 11 7 7 10 11 11 12 11 9 10 10 nan
nan 11 10 8 8 8 7 7 9 22 28 15 10 11 7 11 17 10 10 10 11 11 12 12 10 9 9 13 13 10 10 12 10 16 11 8 9 6 5 11 12 15 20 10 7 12 9 10 12 10 12 12 11 nan
nan 10 9 8 8 8 7 7 14 20 14 11 10 9 13 14 13 11 12 13 11 12 11 12 13 11 9 11 10 11 11 11 12 12 12 11 7 7 7 9 12 12 13 20 18 12 12 11 12 13 13 12 9 nan
nan 11 9 8 8 8 7 7 9 12 16 16 12 12 15 8 11 12 11 10 8 12 10 11 14 12 10 13 11 11 13 10 10 16 11 7 7 9 11 8 11 13 11 17 21 17 13 13 15 16 11 12 13 nan
nan 11 9 7 8 7 7 7 10 18 17 13 8 12 11 9 12 12 10 10 12 10 10 11 13 12 10 12 12 10 9 11 13 11 12 9 6 10 11 9 8 7 12 15 21 22 17 14 12 16 15 12 13 nan
nan 12 8 8 9 8 8 9 15 16 12 11 10 13 10 10 11 13 12 10 12 12 13 14 14 12 11 12 10 10 15 12 13 12 9 5 4 8 10 12 9 11 16 16 21 19 13 14 11 11 17 16 14 nan
nan 5 9 13 12 11 9 13 18 12 10 12 9 9 13 11 11 13 12 11 10 13 12 12 12 10 12 12 15 13 10 10 9 8 9 10 11 10 10 9 12 19 18 18 26 20 14 10 8 11 10 12 17 nan
nan 4 19 25 17 9 10 12 12 11 9 10 13 13 12 12 12 10 10 11 12 13 13 10 12 11 10 12 11 11 11 9 7 10 13 10 7 10 10 16 23 20 16 16 18 17 14 16 14 9 12 13 13 nan
nan 14 18 19 13 10 14 11 10 12 11 11 10 11 14 14 13 10 10 11 12 13 15 12 11 13 11 11 9 8 8 10 10 10 10 10 13 16 18 21 19 14 13 14 14 13 13 13 13 10 11 12 10 nan
nan 14 9 8 10 11 12 12 12 11 12 11 12 13 14 11 9 11 12 13 12 12 11 12 12 11 9 9 8 7 10 10 9 12 14 19 25 22 15 14 11 12 12 13 13 11 11 11 10 12 10 11 11 nan
nan 9 7 8 10 11 11 14 13 11 12 12 10 13 13 11 11 12 12 12 14 14 11 10 9 10 10 8 10 10 11 14 18 16 14 17 20 19 14 11 12 11 10 9 11 14 13 10 11 13 14 13 11 nan
nan 13 10 10 12 13 11 9 13 12 12 12 9 12 14 12 12 13 11 14 14 11 11 12 10 9 10 10 12 14 15 18 19 18 15 12 13 12 11 12 12 12 11 11 10 10 11 11 11 12 12 12 12 nan
nan 12 8 11 11 13 12 15 12 10 13 9 11 14 13 12 12 11 13 14 13 12 10 8 8 9 11 15 19 22 20 17 12 13 14 15 14 11 12 13 12 12 12 12 11 11 10 12 13 12 10 9 10 nan
nan 10 12 14 11 12 13 12 11 12 11 12 14 14 12 11 12 13 15 12 12 11 12 13 15 18 17 17 16 14 14 13 13 13 13 14 12 12 11 12 13 12 10 10 13 12 11 11 14 13 10 12 12 nan
nan 11 14 13 14 9 13 12 11 12 12 13 14 11 12 12 13 15 13 13 11 12 14 16 20 19 16 13 11 10 12 12 11 11 12 12 10 11 12 12 12 11 11 13 12 13 12 12 12 13 14 13 13 nan
nan 13 13 13 12 13 12 11 12 13 13 14 12 11 11 13 13 12 12 11 9 12 15 15 15 15 13 9 10 9 12 14 12 10 11 13 10 9 10 11 12 12 14 13 12 12 12 12 13 14 14 13 13 nan
nan 13 12 14 12 11 11 12 11 12 13 14 12 12 12 11 10 12 13 14 12 9 8 13 15 13 10 13 12 9 10 13 12 8 11 12 13 12 11 11 9 9 14 14 12 10 12 13 13 12 11 11 11 nan
nan 11 11 12 13 13 13 11 10 11 14 14 13 11 12 12 13 12 13 13 10 9 10 12 14 14 12 10 9 11 11 13 15 13 12 13 13 12 14 11 10 11 12 12 12 13 12 11 11 10 9 11 11 nan
nan 12 12 11 13 11 12 15 13 11 13 14 14 14 15 9 8 13 11 10 11 11 15 16 14 11 11 12 13 11 10 13 14 15 13 10 12 13 13 11 13 14 12 14 15 13 14 14 12 10 9 11 13 nan
nan 14 14 17 15 12 10 12 14 15 12 11 12 13 13 11 12 14 16 16 15 15 14 12 11 12 11 13 13 13 14 12 10 11 11 10 9 11 12 12 12 12 12 9 10 17 16 14 14 13 13 13 13 nan
nan 14 7 14 16 12 17 12 12 16 15 14 10 10 13 15 16 13 12 14 18 16 14 14 14 13 13 11 9 11 17 15 14 12 10 13 12 11 12 11 11 12 12 12 10 10 14 14 13 15 14 14 14 nan
nan 10 11 12 12 8 11 13 14 15 14 15 16 14 13 14 13 15 16 14 13 11 11 11 14 15 13 12 12 9 10 16 19 14 13 13 14 15 14 15 16 15 12 14 14 14 14 14 14 13 12 13 13 nan
nan 15 12 10 11 18 16 15 12 9 11 12 12 12 13 15 13 10 12 14 12 12 14 13 10 12 13 12 11 13 16 14 12 14 15 14 13 13 14 14 15 15 15 15 15 14 14 14 14 13 12 11 11 nan
nan nan nan nan nan nan nan nan nan nan nan nan nan nan nan nan nan nan nan nan nan nan nan nan nan nan nan nan nan nan nan nan nan nan nan nan nan nan nan nan nan nan nan nan nan nan nan nan nan nan nan nan nan nan
CAPE
25 8 5 5 17 3 12 6 12 22 12 7 4 4 2 3 5 0 0 0 0 0 0 0 0 0 0 0 0 0 0 0 0 1 0 0 0 0 0 0 0 0 0 0 0 0 0 215 442 370 303 481 121 246
24 17 12 0 1 3 5 2 25 22 5 10 6 2 2 4 4 0 0 0 0 0 0 0 0 0 0 0 0 0 0 0 0 0 0 0 6 0 0 0 0 0 0 0 0 0 121 49 520 542 525 502 314 303
38 34 16 7 1 10 4 4 18 17 23 23 9 6 3 4 2 0 0 0 0 0 0 0 0 0 0 0 0 0 0 0 0 0 0 0 0 0 0 0 0 0 0 66 0 27 29 22 68 179 388 432 194 92
25 26 17 16 0 11 3 6 20 21 24 16 4 2 6 4 8 1 0 0 0 0 0 0 0 0 0 0 0 0 0 0 0 0 0 0 0 0 0 0 0 0 0 0 0 0 0 41 0 0 235 250 144 1
31 17 10 20 1 7 11 14 14 9 14 4 7 10 10 10 3 1 0 0 0 0 0 0 0 0 0 0 0 0 0 0 0 0 0 0 0 0 0 0 0 0 0 10 18 4 0 13 32 55 55 79 0 0
45 16 20 18 6 3 5 9 14 13 5 9 7 6 5 8 5 0 0 0 0 0 0 0 0 0 0 0 0 0 0 0 0 0 0 0 0 0 0 0 2 44 40 0 149 165 62 44 48 47 36 26 1 0
36 18 15 11 7 2 1 8 10 8 6 4 3 2 1 5 0 0 0 0 0 0 0 0 0 0 0 0 0 0 0 0 0 0 0 0 24 35 0 0 0 55 131 96 167 143 265 201 32 109 34 0 0 0
25 20 12 5 4 3 1 4 6 5 3 2 0 1 1 1 0 0 0 0 0 0 0 0 0 0 0 0 3 0 0 0 0 0 0 0 0 8 0 0 0 0 3 152 111 34 8 0 14 130 0 0 0 0
24 20 9 3 3 5 3 4 6 2 0 0 0 0 0 0 0 0 0 0 0 0 1 1 0 0 0 0 0 3 0 0 0 0 0 0 0 1 0 0 0 2 182 103 21 27 66 37 153 12 0 0 0 0
20 24 12 2 2 5 4 5 3 0 0 0 0 0 1 0 0 0 0 0 4 0 0 0 0 0 0 0 0 0 0 0 5 0 0 0 0 0 3 0 0 0 18 0 0 0 35 29 11 17 11 0 0 0
18 21 11 2 1 3 6 4 0 0 0 0 0 0 0 0 0 0 2 0 0 6 0 0 0 0 0 0 0 0 0 0 0 5 0 0 8 17 0 0 0 0 0 0 0 0 11 0 6 5 0 0 0 0
22 17 10 2 1 1 4 2 0 0 0 0 0 0 0 0 0 0 0 0 0 0 0 0 1 0 0 0 0 0 0 0 8 0 21 2 57 0 0 0 0 1 6 0 0 0 1 0 0 3 1 0 0 0
23 18 8 1 0 1 2 0 0 0 0 0 0 0 0 0 0 0 5 24 15 37 28 10 1 0 0 0 0 0 1 1 0 5 30 124 8 0 0 0 0 0 0 0 0 0 0 3 0 34 9 0 0 0
26 21 3 0 0 0 0 0 0 0 0 0 0 0 0 0 0 0 0 0 1 13 1 0 0 0 0 0 0 16 0 0 8 35 2 0 0 0 0 0 0 0 0 0 2 0 77 4 13 119 45 3 0 0
25 13 0 0 0 0 0 0 0 0 0 0 0 0 0 0 0 0 0 0 0 0 0 0 0 0 0 0 0 7 3 32 12 5 6 15 0 0 0 0 0 0 0 1 9 0 58 63 13 0 0 0 0 0
17 7 0 0 0 0 0 0 0 0 0 0 0 0 0 0 0 0 0 0 0 0 0 0 0 0 0 0 3 4 5 19 12 10 3 0 0 0 0 0 0 0 0 0 0 100 108 83 0 0 0 0 0 0
2 0 0 0 0 0 0 0 0 0 0 0 0 0 0 0 0 0 0 11 0 0 1 0 0 0 1 2 0 19 6 4 0 0 0 0 0 0 0 0 2 2 1 1 0 0 0 0 0 0 0 1 0 0
0 0 0 0 0 0 0 0 0 0 0 0 0 0 0 0 0 0 0 0 0 9 19 9 0 2 0 4 3 2 0 0 0 0 0 0 1 0 1 4 3 2 1 1 3 1 2 0 0 1 2 2 1 1
0 0 0 0 0 0 0 0 0 0 0 0 0 0 0 0 0 0 0 0 0 0 0 0 1 4 6 1 0 0 1 1 3 1 2 0 1 1 2 1 1 1 0 1 1 2 2 2 1 1 1 1 1 1
0 0 0 0 0 0 0 0 0 0 0 0 0 0 0 0 0 0 0 2 1 0 0 0 2 3 3 2 2 3 3 1 2 2 4 2 2 1 1 1 1 1 1 1 1 1 1 1 1 0 0 0 1 1
0 0 0 0 0 0 0 0 0 0 0 0 0 0 0 0 0 5 4 0 1 0 0 0 0 0 0 0 0 1 1 2 2 3 3 2 3 2 2 2 2 2 1 1 1 0 1 1 1 0 0 0 0 1
0 0 0 0 0 0 0 0 0 0 0 0 0 0 0 1 7 4 4 0 0 0 0 1 0 0 2 1 0 3 4 3 4 2 2 1 4 3 3 2 1 2 2 1 1 1 1 0 0 0 0 0 2 0
0 0 0 0 0 0 0 0 0 0 0 1 0 1 3 9 6 0 0 1 0 0 0 1 1 1 1 1 3 2 1 0 1 3 4 3 2 1 0 0 0 0 1 0 0 0 0 0 0 0 0 0 0 0
0 0 0 0 0 0 0 0 0 3 1 1 1 3 3 4 0 1 2 2 0 0 0 1 0 1 1 1 4 4 3 1 0 0 0 0 1 1 1 0 0 0 0 0 0 0 0 0 0 0 0 0 0 0
0 0 0 0 0 0 0 5 2 3 0 2 1 3 2 2 1 0 0 0 0 0 1 1 1 2 1 2 2 2 1 0 1 0 0 0 0 0 0 0 0 0 0 0 0 0 0 0 0 0 0 0 0 0
0 0 0 0 0 1 4 1 1 4 1 5 6 7 3 3 0 0 0 0 0 0 0 1 1 4 1 1 1 1 1 0 0 0 0 0 0 0 0 0 0 0 0 0 0 0 0 0 0 0 0 0 0 0
1 1 2 0 2 2 2 2 1 0 0 5 4 4 1 0 0 0 0 0 0 0 0 0 0 1 1 1 0 0 0 0 0 0 0 0 0 0 0 0 0 0 0 0 0 0 0 0 0 0 0 0 0 0
0 0 0 0 1 1 0 0 0 0 1 0 0 0 0 0 0 0 0 0 0 0 0 0 0 0 0 0 0 0 0 0 0 0 0 0 0 0 0 0 0 0 0 0 0 0 0 0 0 0 0 0 0 0
0 0 1 0 0 0 1 5 0 0 0 0 0 0 0 0 0 0 0 0 0 0 0 0 0 0 0 0 0 0 0 0 0 0 0 0 0 0 0 0 0 0 0 0 0 0 0 0 0 0 0 0 0 0
2 0 2 0 0 1 0 0 0 0 0 0 0 0 0 0 0 0 0 0 0 0 0 0 0 0 0 0 0 0 0 0 0 0 0 0 0 0 0 0 0 0 0 0 0 0 0 0 0 0 0 0 0 0
2 0 2 4 1 3 7 3 0 0 0 0 0 0 0 0 0 0 0 0 0 0 0 0 0 0 0 0 0 0 0 0 0 0 0 0 0 0 0 0 0 0 0 0 0 0 0 0 0 0 0 0 0 0
10 4 0 0 5 0 0 0 0 0 0 0 0 0 0 0 0 0 0 0 0 0 0 0 0 0 0 0 0 0 0 0 0 0 0 0 0 0 0 0 0 0 0 0 0 0 0 0 0 0 0 0 0 0
0 0 0 0 9 18 5 7 14 12 1 0 0 0 0 0 0 0 0 0 0 0 0 0 0 0 0 0 0 0 0 0 0 0 0 0 0 0 0 0 0 0 0 0 0 0 0 0 0 0 0 0 0 0